[[{"header":{"parameterUnit":"m.s-1","parameterCategory":1,"la1":30.2991,"la2":30.254,"lo1":-89.0895,"lo2":-89.0444,"dy":0.0017,"dx":0.0017,"nx":28,"ny":28,"refTime":"2024-08-17T21:00:00:Z","depth":0,"parameterNumber":2,"parameterNumberName":"U-component_of_WINDS"},"data":[0,0,0,0,0,0,0,0,0,0,0,0,0,0,0,0,0,0,0,0,0,0,0,0,0,0,0,0,0,0,0,0,0,0,0,0,0,0,0,0,0,0,0,0,0,0,0,0,0,0,0,0,0,0,0,0,0,0,1.3086,1.3085,0,1.3041,1.304,1.304,1.2959,1.2958,1.2956,1.2955,1.291,1.2911,1.2911,0,0,0,0,0,0,0,0,0,0,0,0,0,1.3105,1.3105,1.3086,1.3085,1.3085,1.3041,1.304,1.304,1.2959,1.2958,1.2956,1.2954,1.291,1.2911,1.2911,0,0,0,0,0,0,0,0,0,0,0,0,0,1.3082,1.3105,1.3086,1.3039,1.3035,1.3041,1.304,1.304,1.296,1.2957,1.2955,1.2953,1.291,1.2911,1.2911,1.296,0,0,1.2912,1.2912,0,0,0,0,0,0,0,0,1.3084,1.3082,1.3047,1.3043,1.3037,1.3003,1.3031,1.3013,1.296,1.2988,1.2955,1.2952,1.2943,1.2941,1.2937,1.2958,1.2956,1.2912,1.2912,1.2913,1.2913,0,0,0,0,0,0,0,1.3085,1.3083,1.3068,1.3046,1.3041,1.3022,1.3016,1.3027,1.2979,1.2986,1.298,1.2975,1.294,1.2937,1.2936,1.2955,1.2912,1.2913,1.2913,1.2913,1.3016,1.3018,0,0,0,0,0,0,1.3093,1.3085,1.3069,1.3067,1.3055,1.3023,1.3017,1.3017,1.2979,1.2971,1.2977,1.2972,1.2938,1.2935,1.2934,1.299,1.2913,1.2913,1.2913,1.3013,1.3016,1.3019,0,0,0,0,0,0,1.3094,1.3093,1.3071,1.3074,1.307,1.3025,1.3026,1.3017,1.3014,1.2973,1.2964,1.2983,1.2936,1.2933,1.2954,1.2988,1.2913,1.2913,1.3011,1.3014,1.3018,1.3103,0,0,0,0,0,0,1.3095,1.3094,1.3111,1.3075,1.307,1.3092,1.3028,1.3018,1.3015,1.3007,1.2976,1.2968,1.2934,1.2954,1.2955,1.2987,1.2914,1.3007,1.3012,1.3017,1.3097,1.3109,1.312,0,0,0,0,0,1.3096,1.3136,1.3112,1.3111,1.3091,1.3094,1.3091,1.305,1.3017,1.3035,1.3009,1.2969,1.2984,1.2957,1.2957,1.299,1.3005,1.3011,1.3016,1.3092,1.3107,1.3119,0,0,0,0,0,0,1.3177,1.3131,1.3103,1.3133,1.3118,1.308,1.3101,1.3067,1.3061,1.3054,1.3004,1.2998,1.3026,1.3009,1.2981,1.3036,1.2988,1.2994,1.3046,1.306,1.3071,1.3075,1.2914,0,0,0,0,0,1.3199,1.3204,1.3164,1.3194,1.3188,1.3146,1.3146,1.3116,1.3098,1.3092,1.3067,1.3052,1.3054,1.3056,1.3054,1.3094,1.3088,1.3117,1.3128,1.3138,1.3144,1.3166,1.3179,1.3038,1.3038,1.3038,0,0,1.3243,1.3218,1.3225,1.321,1.3194,1.3203,1.3141,1.3152,1.3158,1.3093,1.3112,1.3094,1.3074,1.3106,1.3118,1.3093,1.3182,1.3145,1.3153,1.3154,1.3173,1.3187,1.3199,1.3041,1.3041,1.304,0,0,1.3328,1.3309,1.3333,1.332,1.3297,1.327,1.3276,1.3243,1.3229,1.3247,1.3199,1.3206,1.3209,1.3198,1.3192,1.3276,1.324,1.3277,1.3336,1.3358,1.337,1.3379,1.3411,1.3423,1.3283,1.3283,1.3283,0,1.3386,1.3396,1.335,1.3365,1.3361,1.3302,1.3328,1.3317,1.3296,1.3295,1.3267,1.3271,1.3253,1.3282,1.3303,1.33,1.3307,1.328,1.3371,1.3381,1.3389,1.3419,1.3431,1.3288,1.3287,1.3286,1.3286,0,1.3469,1.3477,1.3499,1.3481,1.3479,1.3499,1.3458,1.3462,1.3432,1.3408,1.3429,1.3406,1.34,1.3404,1.3375,1.343,1.3416,1.338,1.3331,1.3408,1.3436,1.3446,1.3294,1.3293,1.3291,1.329,0,0,1.3604,1.3561,1.357,1.3562,1.3534,1.354,1.3558,1.3552,1.3557,1.3545,1.3561,1.3565,1.3533,1.3527,1.3497,1.3516,1.3586,1.3478,1.3477,1.3501,1.3648,1.3676,1.369,1.3562,1.3564,1.3565,1.365,0,1.3684,1.3712,1.3673,1.371,1.3718,1.3664,1.368,1.3666,1.3644,1.3648,1.3624,1.3629,1.3585,1.3582,1.3598,1.3574,1.3616,1.3567,1.3577,1.3578,1.3586,1.3704,1.3733,1.3814,1.366,1.3662,1.3663,0,1.3782,1.3775,1.3813,1.3785,1.3787,1.3802,1.3795,1.3799,1.3782,1.3765,1.376,1.3724,1.3741,1.3693,1.3717,1.3686,1.3688,1.3677,1.3679,1.3679,1.3627,1.3709,1.3838,1.3852,1.3679,1.3678,1.3677,0,1.3879,1.3879,1.3902,1.3897,1.3864,1.3876,1.3863,1.3844,1.3844,1.3838,1.3837,1.3834,1.3832,1.3831,1.3795,1.3763,1.3825,1.3773,1.3813,1.3815,1.383,1.3829,1.3963,1.3828,1.3828,1.3828,1.3828,0,1.3973,1.4,1.3946,1.396,1.3989,1.3944,1.3974,1.3955,1.3939,1.395,1.3903,1.3915,1.3866,1.3873,1.3846,1.3872,1.3871,1.3859,1.3852,1.3864,1.3866,1.3866,1.386,1.3831,1.383,1.383,1.3829,0,1.4087,1.4051,1.4074,1.4041,1.4034,1.4056,1.4029,1.4042,1.4018,1.4033,1.4034,1.3996,1.4002,1.3966,1.3966,1.3947,1.3988,1.397,1.3994,1.3989,1.4031,1.4029,1.4171,1.4188,1.4041,1.4042,1.4044,0,1.415,1.4169,1.4139,1.4143,1.4133,1.4139,1.4139,1.4097,1.4099,1.4082,1.4098,1.41,1.41,1.4113,1.4086,1.4086,1.4069,1.4119,1.4069,1.4081,1.4072,1.4072,1.4075,1.413,1.4131,1.4133,1.4134,0,1.4268,1.425,1.4251,1.4247,1.4248,1.4243,1.4235,1.4241,1.4195,1.42,1.4206,1.4206,1.4206,1.421,1.4205,1.4192,1.4157,1.415,1.416,1.4173,1.4187,1.4183,1.4024,1.4147,1.4146,1.4145,1.4144,1.4144,1.4359,1.4375,1.4356,1.436,1.4349,1.4343,1.4355,1.4332,1.4336,1.4333,1.4307,1.4319,1.4303,1.4293,1.4284,1.4293,1.427,1.4283,1.4287,1.4291,1.43,1.4185,1.4292,1.4292,1.4291,1.4291,1.4291,0,1.4476,1.4462,1.4466,1.4456,1.446,1.4425,1.4414,1.442,1.4431,1.4419,1.442,1.4428,1.4432,1.4406,1.4407,1.4419,1.4403,1.4421,1.4421,1.4419,1.432,1.4312,1.4434,1.4434,1.4434,1.4434,1.4434,1.4434,1.4537,1.4562,1.4542,1.4562,1.4548,1.4558,1.4556,1.455,1.4541,1.4552,1.4555,1.4538,1.4522,1.4521,1.4524,1.4516,1.452,1.4544,1.4531,1.4439,1.4425,1.4412,1.4405,1.4544,1.4544,1.4629,1.463,1.4631]},{"header":{"parameterUnit":"m.s-1","parameterCategory":1,"la1":30.2991,"la2":30.254,"lo1":-89.0895,"lo2":-89.0444,"dy":0.0017,"dx":0.0017,"nx":28,"ny":28,"refTime":"2024-08-17T21:00:00:Z","depth":0,"parameterNumber":3,"parameterNumberName":"V-component_of_WINDS"},"data":[0,0,0,0,0,0,0,0,0,0,0,0,0,0,0,0,0,0,0,0,0,0,0,0,0,0,0,0,0,0,0,0,0,0,0,0,0,0,0,0,0,0,0,0,0,0,0,0,0,0,0,0,0,0,0,0,0,0,-4.3228,-4.3227,0,-4.3222,-4.3221,-4.3221,-4.3188,-4.3187,-4.3186,-4.3185,-4.3176,-4.3176,-4.3177,0,0,0,0,0,0,0,0,0,0,0,0,0,-4.3208,-4.3209,-4.3228,-4.3227,-4.3227,-4.3222,-4.3221,-4.3221,-4.3188,-4.3187,-4.3186,-4.3185,-4.3176,-4.3176,-4.3177,0,0,0,0,0,0,0,0,0,0,0,0,0,-4.3211,-4.3209,-4.3228,-4.321,-4.3208,-4.3222,-4.3221,-4.3221,-4.3188,-4.3187,-4.3186,-4.3185,-4.3176,-4.3176,-4.3177,-4.3206,0,0,-4.3179,-4.318,0,0,0,0,0,0,0,0,-4.3211,-4.3212,-4.3213,-4.3211,-4.3209,-4.3204,-4.3211,-4.3216,-4.3188,-4.3196,-4.3185,-4.3184,-4.3186,-4.3186,-4.3187,-4.3205,-4.3205,-4.3179,-4.318,-4.318,-4.318,0,0,0,0,0,0,0,-4.3211,-4.3212,-4.3225,-4.3213,-4.3211,-4.3202,-4.3201,-4.3212,-4.3198,-4.3195,-4.3193,-4.3192,-4.3185,-4.3187,-4.3187,-4.3205,-4.3179,-4.318,-4.318,-4.3181,-4.3248,-4.3249,0,0,0,0,0,0,-4.3213,-4.3212,-4.3225,-4.3225,-4.3207,-4.3203,-4.3202,-4.3207,-4.3197,-4.3195,-4.3193,-4.3191,-4.3186,-4.3186,-4.3186,-4.3221,-4.318,-4.3181,-4.3181,-4.3247,-4.3248,-4.325,0,0,0,0,0,0,-4.3213,-4.3215,-4.3225,-4.3218,-4.3218,-4.3205,-4.3211,-4.3208,-4.3209,-4.3196,-4.3193,-4.3198,-4.3185,-4.3185,-4.3202,-4.322,-4.3181,-4.3182,-4.3245,-4.3247,-4.3249,-4.3289,0,0,0,0,0,0,-4.3213,-4.3215,-4.3226,-4.3218,-4.3219,-4.3242,-4.3212,-4.3208,-4.3211,-4.3208,-4.32,-4.3197,-4.3184,-4.3201,-4.3203,-4.322,-4.3182,-4.3243,-4.3246,-4.3248,-4.3286,-4.3293,-4.3298,0,0,0,0,0,-4.3212,-4.3236,-4.3226,-4.3228,-4.3232,-4.3243,-4.3243,-4.3228,-4.3213,-4.3224,-4.3216,-4.3198,-4.3218,-4.3203,-4.3204,-4.3223,-4.3242,-4.3245,-4.3248,-4.3284,-4.3291,-4.3298,0,0,0,0,0,0,-4.3244,-4.3235,-4.3224,-4.3246,-4.3246,-4.3237,-4.325,-4.3236,-4.3239,-4.3236,-4.3217,-4.3215,-4.3235,-4.323,-4.3214,-4.3251,-4.3227,-4.3231,-4.3254,-4.3261,-4.3266,-4.3267,-4.3183,0,0,0,0,0,-4.3254,-4.3264,-4.3255,-4.3276,-4.3276,-4.3264,-4.3267,-4.3256,-4.3254,-4.3254,-4.3247,-4.3245,-4.3251,-4.3255,-4.326,-4.3286,-4.3284,-4.3299,-4.3305,-4.331,-4.3313,-4.3328,-4.3335,-4.326,-4.326,-4.326,0,0,-4.3274,-4.327,-4.3277,-4.3282,-4.328,-4.3291,-4.3263,-4.3275,-4.3283,-4.3255,-4.3271,-4.3266,-4.3263,-4.3285,-4.3294,-4.3281,-4.3334,-4.3313,-4.3317,-4.3318,-4.3332,-4.3339,-4.3346,-4.3262,-4.3261,-4.3261,0,0,-4.3317,-4.3314,-4.3333,-4.3332,-4.3331,-4.3323,-4.3327,-4.3321,-4.3318,-4.3334,-4.3314,-4.3322,-4.3333,-4.3332,-4.3333,-4.3379,-4.3363,-4.338,-4.3411,-4.3426,-4.3432,-4.3437,-4.3455,-4.3461,-4.3384,-4.3384,-4.3384,0,-4.3342,-4.3358,-4.3343,-4.3358,-4.3361,-4.3338,-4.3357,-4.3357,-4.3356,-4.3359,-4.3345,-4.336,-4.3356,-4.3378,-4.339,-4.3391,-4.3396,-4.3381,-4.3432,-4.3437,-4.3442,-4.3459,-4.3465,-4.3386,-4.3386,-4.3386,-4.3385,0,-4.339,-4.3401,-4.3416,-4.3419,-4.3424,-4.344,-4.3428,-4.3434,-4.3423,-4.3417,-4.3434,-4.3429,-4.3434,-4.3438,-4.3426,-4.346,-4.3452,-4.3436,-4.3411,-4.3452,-4.3467,-4.3473,-4.339,-4.3389,-4.3388,-4.3387,0,0,-4.3451,-4.3448,-4.3454,-4.3456,-4.3454,-4.3462,-4.3478,-4.3484,-4.3491,-4.3491,-4.3505,-4.3515,-4.3501,-4.3502,-4.3491,-4.3504,-4.3543,-4.3486,-4.3485,-4.3498,-4.3581,-4.3594,-4.3602,-4.3532,-4.3533,-4.3534,-4.3581,0,-4.3493,-4.3521,-4.351,-4.3539,-4.355,-4.353,-4.3544,-4.3544,-4.3539,-4.3547,-4.3541,-4.355,-4.3529,-4.353,-4.3542,-4.3535,-4.3559,-4.3531,-4.3544,-4.3545,-4.3547,-4.3609,-4.3623,-4.3668,-4.3587,-4.3588,-4.3589,0,-4.3546,-4.3552,-4.3583,-4.3581,-4.3585,-4.3598,-4.3604,-4.3613,-4.3613,-4.3608,-4.3611,-4.3597,-4.3613,-4.3589,-4.361,-4.3592,-4.3596,-4.3594,-4.3595,-4.3597,-4.357,-4.3614,-4.3682,-4.3689,-4.3598,-4.3597,-4.3597,0,-4.359,-4.3605,-4.3626,-4.3628,-4.3627,-4.3637,-4.3636,-4.3635,-4.3641,-4.3645,-4.3649,-4.3655,-4.3658,-4.3663,-4.3651,-4.3635,-4.3675,-4.3649,-4.3672,-4.3673,-4.3682,-4.3682,-4.3753,-4.3683,-4.3683,-4.3683,-4.3683,0,-4.3639,-4.3659,-4.3647,-4.366,-4.3682,-4.3668,-4.369,-4.3687,-4.3688,-4.37,-4.3682,-4.3693,-4.3677,-4.3687,-4.3678,-4.3698,-4.3699,-4.3696,-4.3693,-4.3698,-4.3699,-4.3702,-4.3699,-4.3685,-4.3684,-4.3684,-4.3684,0,-4.3692,-4.3684,-4.3706,-4.3704,-4.3704,-4.372,-4.3718,-4.373,-4.3724,-4.374,-4.3743,-4.3733,-4.3745,-4.3734,-4.3743,-4.3737,-4.3765,-4.3757,-4.3766,-4.3764,-4.3788,-4.3787,-4.3865,-4.3875,-4.3797,-4.3798,-4.3799,0,-4.3724,-4.374,-4.374,-4.3748,-4.3749,-4.3761,-4.3767,-4.3755,-4.3762,-4.3765,-4.3777,-4.3787,-4.3794,-4.3813,-4.3807,-4.3815,-4.3808,-4.3835,-4.3809,-4.3814,-4.381,-4.381,-4.3812,-4.384,-4.3841,-4.3842,-4.3842,0,-4.3783,-4.3779,-4.3789,-4.3799,-4.3807,-4.3814,-4.3819,-4.3826,-4.3813,-4.3822,-4.3835,-4.3841,-4.3852,-4.3863,-4.3869,-4.3868,-4.3854,-4.3851,-4.3857,-4.3862,-4.3867,-4.3867,-4.3782,-4.3849,-4.3848,-4.3848,-4.3848,-4.3847,-4.3827,-4.3841,-4.3844,-4.3857,-4.386,-4.3866,-4.3878,-4.3875,-4.3885,-4.3895,-4.3887,-4.3902,-4.3903,-4.3911,-4.3912,-4.3924,-4.3912,-4.392,-4.3923,-4.3925,-4.393,-4.3865,-4.3925,-4.3924,-4.3924,-4.3924,-4.3924,0,-4.3887,-4.3889,-4.39,-4.3909,-4.3919,-4.3907,-4.3912,-4.3921,-4.3935,-4.3939,-4.3947,-4.3963,-4.3973,-4.3969,-4.3978,-4.3989,-4.3983,-4.3992,-4.3991,-4.3992,-4.3938,-4.3933,-4.3997,-4.3997,-4.3997,-4.3997,-4.3997,-4.3997,-4.3919,-4.3942,-4.3939,-4.3964,-4.3965,-4.3982,-4.3986,-4.3992,-4.3995,-4.4013,-4.4023,-4.402,-4.4021,-4.4031,-4.404,-4.4039,-4.4044,-4.4056,-4.4052,-4.4002,-4.3995,-4.3988,-4.3983,-4.4057,-4.4057,-4.4104,-4.4105,-4.4105]}]]